Regional Weather Roundup
Issued by NWS

Home | Current Version | Previous Version | Graphics & Text | Print | Product List | Glossary On
Versions: 1 2 3 4 5 6 7 8 9 10 11 12 13 14 15 16 17 18 19 20 21 22 23 24 25 26 27 28 29 30 31 32 33 34 35 36 37 38 39 40 41 42 43 44 45 46 47 48 49 50
000
ASUS43 KLOT 300302
RWRIL

ILLINOIS REGIONAL WEATHER ROUNDUP
NATIONAL WEATHER SERVICE CHICAGO/ROMEOVILLE IL
1000 PM CDT FRI MAY 29 2015

NOTE: "FAIR" INDICATES FEW OR NO CLOUDS BELOW 12,000 FEET WITH NO
SIGNIFICANT WEATHER AND/OR OBSTRUCTIONS TO VISIBILITY.

* THESE STATIONS ARE NOT UNDER NWS QUALITY CONTROL. THEY ALSO MAY NOT
  REPORT WEATHER SUCH AS PRECIPITATION OR FOG.

ILZ001-002-007-009-015-016-024-300400-
NORTHWEST ILLINOIS

CITY           SKY/WX    TMP DP  RH WIND       PRES   REMARKS
MOLINE         CLOUDY    71  67  87 SW5       29.95R
STERLING*      CLOUDY    70  64  83 W7        29.95R
$$

ILZ003-004-008-010-011-017-018-300400-
NORTH CENTRAL ILLINOIS

CITY           SKY/WX    TMP DP  RH WIND       PRES   REMARKS
ROCKFORD       CLOUDY    71  65  81 SW7       29.94R
FREEPORT*      CLOUDY    69  65  86 SW6       29.95R
$$

ILZ005-006-012>014-019>023-300400-
NORTHEAST ILLINOIS

CITY           SKY/WX    TMP DP  RH WIND       PRES   REMARKS
CHICAGO-OHARE  CLOUDY    76  64  66 SW9       29.92R
CHICAGO-MIDWAY CLOUDY    77  66  68 S10       29.93R
AURORA         MOCLDY    74  62  66 SW8       29.94R
WAUKEGAN       CLOUDY    72  63  73 SW5       29.91R
DUPAGE AIRPORT CLOUDY    75  64  68 W6        29.93R
WHEELING       CLOUDY    72  67  84 W3        29.93S
NORTHERLY ISL    N/A     75  64  68 S13         N/A
$$

LMZ740>746-300400-
SOUTHERN LAKE MICHIGAN

STATION/POSITION SKY/WX   TEMP    WIND        PRES    VSBY  WAVE
                          AIR SEA DIR/SP/G                  HT/PER
                          (F)     (DEG/KT/KT) (MB)    (MI)  (FT/S)
SOUTHERN BUOY              46 38  210/  6/  6 1013.3          0
HARRISON CRIB              76     200/ 15/ 18   N/A
BURNHAM HARBOR             77     190/ 10/ 15   N/A
CALUMET HARBOR             74     190/  7/ 11   N/A
BURNS HARBOR               73     200/ 16/ 23 1014.6R
MICHIGAN CITY              72     170/  6/ 11   N/A
MICHIGAN CITY 6N           63 56  200/  6/ 10   N/A           1
ST. JOSEPH                 64 58  200/  4/ 14   N/A           1/ 3
$$

ILZ025>027-034>036-040-047-049-050-058-095>099-300400-
WEST-CENTRAL ILLINOIS

CITY           SKY/WX    TMP DP  RH WIND       PRES   REMARKS
QUINCY         CLOUDY    70  66  87 S6        29.99R
MACOMB*        CLOUDY    71  65  82 SW6       30.00R
$$

ILZ028>032-037-038-041>044-048-051>054-059>061-300400-
CENTRAL ILLINOIS

CITY           SKY/WX    TMP DP  RH WIND       PRES   REMARKS
DECATUR        CLOUDY    71  67  87 S9        30.01R
PEORIA         MOCLDY    72  67  84 S8        29.98R
LINCOLN*       CLOUDY    71  67  89 S8        29.97S
SPRINGFIELD    CLOUDY    72  69  90 S9        29.99R
TAYLORVILLE    NOT AVBL
$$

ILZ033-039-045-046-055>057-062-063-300400-
EAST-CENTRAL ILLINOIS

CITY           SKY/WX    TMP DP  RH WIND       PRES   REMARKS
CHAMPAIGN      CLOUDY    72  67  84 SW7       30.01R
MATTOON        LGT RAIN  69  65  86 S7        30.02R
$$

ILZ079-100>102-300400-
SOUTHWEST ILLINOIS

CITY           SKY/WX    TMP DP  RH WIND       PRES   REMARKS
ALTON          MOCLDY    70  70 100 SE6       30.01
BELLEVILLE     DRIZZLE   69  69 100 SE8       30.00R
CAHOKIA*       CLOUDY    71  67  87 SE6       30.00R
SPARTA*        RAIN      67  66  96 CALM      30.05R
$$

ILZ064>066-069>071-074>076-080>082-084>086-088>090-092>094-300400-
SOUTH-CENTRAL ILLINOIS

CITY           SKY/WX    TMP DP  RH WIND       PRES   REMARKS
CARBONDALE     CLOUDY    70  67  90 NW9       30.04R
MT. VERNON     PTCLDY    66  61  82 CALM      30.05R
SALEM*         CLOUDY    69  66  90 CALM      30.03R
$$

ILZ067-068-072-073-078-083-087-091-300400-
SOUTHEAST ILLINOIS

CITY           SKY/WX    TMP DP  RH WIND       PRES   REMARKS
LAWRENCEVILLE  MOCLDY    75  65  70 W8        30.05R
HARRISBURG*    MOCLDY    73  65  78 NE5       30.06R
ROBINSON*      CLOUDY    74  64  72 SW6       30.06R
$$

ABBREVIATIONS USED IN REMARKS
   TC - TEMPERATURE IN CELSIUS
  WCI - WIND CHILL INDEX
   HX - HEAT INDEX
  VSB - VISIBILITY
$$



USA.gov is the U.S. government's official web portal to all federal, state and local government web resources and services.